| time (UTC) | temp F | wind direction | speed knots | gust knots | rain 1hr in | rain 24hr in | rain mn in | humidity % | barometer mb |
| 20260901080107 | 53 | 179 | 0.0 | 0.0 | 0.00 | 0.01 | 0.00 | 79 | 1007.8 |
| 20260901074605 | 53 | 179 | 0.0 | 0.0 | 0.00 | 0.01 | 0.00 | 78 | 1007.8 |
| 20260901073032 | 54 | 179 | 0.0 | 0.0 | 0.00 | 0.01 | 0.00 | 76 | 1008.1 |
| 20260901071539 | 54 | 179 | 0.0 | 0.0 | 0.00 | 0.01 | 0.00 | 75 | 1008.0 |
| 20260901070050 | 54 | 181 | 0.0 | 5.2 | 0.00 | 0.01 | 0.00 | 75 | 1008.0 |
| 20260901064530 | 54 | 167 | 0.0 | 2.6 | 0.00 | 0.01 | 0.00 | 77 | 1008.2 |
| 20260901063047 | 53 | 178 | 0.0 | 0.0 | 0.00 | 0.01 | 0.00 | 78 | 1008.1 |
| 20260901061541 | 53 | 178 | 0.0 | 0.0 | 0.00 | 0.01 | 0.00 | 79 | 1008.2 |
| 20260901060052 | 53 | 178 | 0.0 | 0.0 | 0.00 | 0.01 | 0.00 | 79 | 1008.3 |
| 20260901054539 | 54 | 178 | 0.0 | 3.5 | 0.00 | 0.01 | 0.01 | 74 | 1008.4 |
| 20260901053058 | 55 | 153 | 0.9 | 3.5 | 0.00 | 0.01 | 0.01 | 73 | 1008.0 |
| 20260901051551 | 55 | 169 | 0.9 | 8.7 | 0.00 | 0.01 | 0.01 | 73 | 1008.4 |
| 20260901050052 | 55 | 155 | 0.0 | 9.6 | 0.00 | 0.01 | 0.01 | 73 | 1008.5 |
| 20260901044603 | 54 | 146 | 0.0 | 3.5 | 0.00 | 0.04 | 0.01 | 74 | 1008.3 |
| 20260901043040 | 52 | 193 | 1.7 | 7.0 | 0.00 | 0.04 | 0.01 | 77 | 1008.2 |
| 20260901041535 | 52 | 168 | 0.0 | 0.9 | 0.00 | 0.04 | 0.01 | 83 | 1008.4 |
| 20260901040046 | 51 | 150 | 0.0 | 0.0 | 0.00 | 0.04 | 0.01 | 84 | 1008.2 |
| 20260901034549 | 52 | 150 | 0.0 | 1.7 | 0.00 | 0.14 | 0.01 | 82 | 1008.2 |
| 20260901033049 | 52 | 153 | 0.9 | 4.3 | 0.00 | 0.14 | 0.01 | 82 | 1008.4 |
| 20260901031556 | 52 | 113 | 0.0 | 3.5 | 0.00 | 0.14 | 0.01 | 84 | 1008.6 |
| 20260901030059 | 52 | 120 | 0.0 | 0.0 | 0.00 | 0.14 | 0.01 | 85 | 1009.0 |
| 20260901024611 | 52 | 120 | 0.0 | 2.6 | 0.00 | 0.14 | 0.01 | 85 | 1008.7 |
| 20260901023003 | 52 | 128 | 0.0 | 3.5 | 0.00 | 0.14 | 0.01 | 86 | 1008.8 |
| 20260901021513 | 52 | 88 | 0.0 | 0.0 | 0.01 | 0.14 | 0.01 | 86 | 1008.6 |
| 20260901020101 | 52 | 101 | 0.0 | 0.0 | 0.01 | 0.14 | 0.01 | 86 | 1009.0 |
| 20260901014609 | 53 | 144 | 0.0 | 0.0 | 0.01 | 0.14 | 0.01 | 84 | 1008.7 |
| 20260901013027 | 54 | 144 | 0.0 | 0.0 | 0.00 | 0.13 | 0.01 | 81 | 1009.5 |
| 20260901011511 | 58 | 295 | 0.0 | 7.8 | 0.00 | 0.13 | 0.00 | 67 | 1009.2 |
| 20260901010003 | 62 | 221 | 0.0 | 0.0 | 0.00 | 0.13 | 0.00 | 55 | 1008.2 |
| 20260901004516 | 63 | 148 | 0.0 | 5.2 | 0.00 | 0.13 | 0.00 | 53 | 1007.6 |
| 20260901003125 | 63 | 148 | 0.0 | 7.8 | 0.00 | 0.13 | 0.00 | 50 | 1007.3 |
| 20260901001605 | 63 | 138 | 0.0 | 0.0 | 0.00 | 0.13 | 0.00 | 50 | 1007.3 |
| 20260901000003 | 64 | 114 | 0.0 | 0.0 | 0.00 | 0.13 | 0.00 | 49 | 1007.4 |
| 20260831234508 | 64 | 152 | 0.0 | 0.0 | 0.00 | 0.13 | 0.00 | 47 | 1007.7 |
| 20260831233147 | 64 | 113 | 0.0 | 5.2 | 0.00 | 0.13 | 0.00 | 45 | 1007.7 |
| 20260831231526 | 65 | 153 | 0.0 | 0.0 | 0.00 | 0.13 | 0.00 | 45 | 1007.7 |
| 20260831230002 | 65 | 140 | 0.0 | 0.0 | 0.00 | 0.13 | 0.00 | 45 | 1007.8 |
| 20260831224505 | 66 | 155 | 0.0 | 0.9 | 0.00 | 0.13 | 0.00 | 43 | 1007.9 |
| 20260831223002 | 66 | 172 | 0.0 | 8.7 | 0.00 | 0.13 | 0.00 | 44 | 1008.1 |
| 20260831221516 | 65 | 146 | 0.0 | 4.3 | 0.00 | 0.13 | 0.00 | 46 | 1008.4 |
| 20260831220015 | 66 | 157 | 0.0 | 0.0 | 0.00 | 0.13 | 0.00 | 47 | 1008.8 |
| 20260831214551 | 66 | 170 | 0.0 | 3.5 | 0.00 | 0.13 | 0.00 | 44 | 1008.9 |
| 20260831213050 | 66 | 167 | 0.0 | 3.5 | 0.00 | 0.13 | 0.00 | 44 | 1009.0 |
| 20260831211505 | 67 | 168 | 3.5 | 7.8 | 0.00 | 0.13 | 0.00 | 42 | 1009.0 |
| 20260831210026 | 67 | 140 | 0.0 | 0.9 | 0.00 | 0.13 | 0.00 | 42 | 1009.0 |
| 20260831204504 | 66 | 276 | 0.0 | 0.0 | 0.00 | 0.13 | 0.00 | 43 | 1009.3 |
| 20260831203030 | 66 | 121 | 0.9 | 5.2 | 0.00 | 0.13 | 0.00 | 41 | 1009.7 |
| 20260831201534 | 66 | 148 | 1.7 | 3.5 | 0.00 | 0.13 | 0.00 | 42 | 1009.7 |
| 20260831200042 | 65 | 272 | 0.0 | 0.0 | 0.00 | 0.13 | 0.00 | 44 | 1010.0 |
| 20260831194526 | 64 | 272 | 0.0 | 3.5 | 0.00 | 0.13 | 0.00 | 43 | 1010.1 |
| 20260831193051 | 63 | 346 | 0.0 | 5.2 | 0.00 | 0.13 | 0.00 | 46 | 1010.1 |
| 20260831191524 | 63 | 179 | 0.0 | 0.0 | 0.00 | 0.13 | 0.00 | 52 | 1010.1 |
| 20260831190052 | 64 | 178 | 0.0 | 0.0 | 0.00 | 0.13 | 0.00 | 43 | 1010.4 |
| 20260831184556 | 64 | 178 | 0.0 | 0.0 | 0.00 | 0.13 | 0.00 | 47 | 1010.7 |
| 20260831183057 | 63 | 244 | 0.0 | 0.0 | 0.00 | 0.13 | 0.00 | 48 | 1010.9 |
| 20260831181554 | 62 | 230 | 0.0 | 0.0 | 0.00 | 0.13 | 0.00 | 52 | 1011.1 |
| 20260831180010 | 61 | 171 | 0.0 | 0.0 | 0.00 | 0.13 | 0.00 | 53 | 1011.3 |
| 20260831174527 | 62 | 173 | 0.0 | 0.0 | 0.00 | 0.13 | 0.00 | 53 | 1011.2 |
| 20260831173038 | 63 | 255 | 0.0 | 0.0 | 0.00 | 0.13 | 0.00 | 50 | 1011.1 |
| 20260831171552 | 62 | 151 | 0.9 | 4.3 | 0.00 | 0.13 | 0.00 | 49 | 1010.8 |
| 20260831170052 | 61 | 205 | 0.0 | 6.1 | 0.00 | 0.13 | 0.00 | 56 | 1011.0 |
| 20260831164526 | 60 | 181 | 0.0 | 2.6 | 0.00 | 0.13 | 0.00 | 58 | 1010.9 |
| 20260831163006 | 60 | 144 | 0.0 | 1.7 | 0.00 | 0.13 | 0.00 | 63 | 1010.9 |
| 20260831161522 | 60 | 68 | 0.0 | 0.0 | 0.00 | 0.13 | 0.00 | 62 | 1010.7 |
| 20260831160002 | 59 | 68 | 0.0 | 0.0 | 0.00 | 0.13 | 0.00 | 66 | 1010.6 |
| 20260831154503 | 58 | 68 | 0.0 | 0.0 | 0.00 | 0.13 | 0.00 | 65 | 1010.3 |
| 20260831153056 | 57 | 68 | 0.0 | 0.0 | 0.00 | 0.13 | 0.00 | 64 | 1010.3 |
| 20260831151552 | 56 | 68 | 0.0 | 0.0 | 0.00 | 0.13 | 0.00 | 70 | 1010.2 |
| 20260831150104 | 55 | 68 | 0.0 | 1.7 | 0.00 | 0.13 | 0.00 | 70 | 1010.2 |
| 20260831144606 | 53 | 68 | 0.9 | 2.6 | 0.00 | 0.13 | 0.00 | 72 | 1010.2 |
| 20260831143100 | 52 | 115 | 0.0 | 0.0 | 0.00 | 0.13 | 0.00 | 76 | 1010.3 |
| 20260831141605 | 51 | 116 | 0.0 | 0.0 | 0.00 | 0.13 | 0.00 | 77 | 1010.1 |
| 20260831140002 | 51 | 116 | 0.0 | 0.0 | 0.00 | 0.13 | 0.00 | 78 | 1010.2 |
| 20260831134506 | 50 | 116 | 0.0 | 0.0 | 0.00 | 0.13 | 0.00 | 78 | 1010.0 |
| 20260831133034 | 49 | 116 | 0.0 | 0.0 | 0.00 | 0.13 | 0.00 | 78 | 1010.0 |
| 20260831131554 | 48 | 116 | 0.0 | 0.0 | 0.00 | 0.13 | 0.00 | 79 | 1009.8 |
| 20260831130047 | 48 | 116 | 0.0 | 0.0 | 0.00 | 0.13 | 0.00 | 79 | 1009.4 |
| 20260831124546 | 48 | 116 | 0.0 | 0.0 | 0.00 | 0.13 | 0.00 | 78 | 1009.2 |
| 20260831123053 | 48 | 116 | 0.0 | 0.0 | 0.00 | 0.13 | 0.00 | 79 | 1009.1 |
| 20260831121607 | 48 | 116 | 0.0 | 0.0 | 0.00 | 0.13 | 0.00 | 77 | 1008.8 |
| 20260831120130 | 49 | 116 | 0.0 | 0.0 | 0.00 | 0.13 | 0.00 | 76 | 1008.9 |
| 20260831114611 | 49 | 116 | 0.0 | 0.0 | 0.00 | 0.13 | 0.00 | 75 | 1008.8 |
| 20260831113003 | 48 | 116 | 1.7 | 3.5 | 0.00 | 0.13 | 0.00 | 78 | 1008.9 |
| 20260831111509 | 48 | 138 | 0.0 | 0.0 | 0.00 | 0.13 | 0.00 | 79 | 1008.8 |
| 20260831110151 | 49 | 138 | 0.0 | 0.0 | 0.00 | 0.13 | 0.00 | 78 | 1008.9 |
| 20260831104606 | 48 | 138 | 0.0 | 0.0 | 0.00 | 0.13 | 0.00 | 80 | 1008.8 |
| 20260831103129 | 48 | 138 | 0.0 | 0.0 | 0.00 | 0.13 | 0.00 | 80 | 1008.8 |
| 20260831101554 | 48 | 138 | 0.0 | 0.0 | 0.00 | 0.13 | 0.00 | 80 | 1008.6 |
| 20260831100052 | 48 | 138 | 0.0 | 0.0 | 0.00 | 0.13 | 0.00 | 80 | 1008.3 |
| 20260831094534 | 48 | 138 | 0.0 | 0.0 | 0.00 | 0.13 | 0.00 | 81 | 1008.2 |
| 20260831093048 | 48 | 138 | 0.0 | 0.0 | 0.00 | 0.13 | 0.00 | 81 | 1008.0 |
| 20260831091535 | 48 | 138 | 0.0 | 0.0 | 0.00 | 0.13 | 0.00 | 82 | 1007.9 |
| 20260831090051 | 48 | 138 | 0.0 | 0.0 | 0.00 | 0.13 | 0.00 | 83 | 1007.7 |
| 20260831084547 | 48 | 138 | 0.0 | 0.0 | 0.00 | 0.13 | 0.00 | 83 | 1007.7 |
| 20260831083108 | 48 | 138 | 0.0 | 0.0 | 0.00 | 0.13 | 0.00 | 83 | 1007.6 |
| 20260831081503 | 49 | 138 | 0.0 | 0.0 | 0.00 | 0.13 | 0.00 | 82 | 1007.6 |